contact:dominique.lefevre@mio.osupytheas.fr, maurice.libes@osupytheas.fr, didier.mallarino@osupytheas.fr
Project:EMSO http://www.emso-fr.org/EMSO-France
Depth: 2436.0 m
Title:EMSO Ligure Ouest : Data MII capteur CSTAR
DateTime,Latitude,Longitude,Instrument_Serial,Reference_Counts,Signal_Counts,Corrected_Signal_raw_counts,Calculated_Beam_c_inverse_meters,Internal_thermistor_counts
DateTime,Latitude,Longitude,Instrument_Serial,Reference_Counts,Signal_Counts,Corrected_Signal_raw_counts,Calculated_Beam_c_inverse_meters,Internal_thermistor_counts
2024-03-30T00:01:37,42.805,6.029,CST-1368DR,4140,4156,10640,01.535,553
2024-03-30T00:04:39,42.805,6.029,CST-1368DR,4140,4158,10645,01.533,553
2024-03-30T00:07:40,42.805,6.029,CST-1368DR,4140,4154,10636,01.536,553
2024-03-30T00:10:42,42.805,6.029,CST-1368DR,4140,4163,10659,01.528,553
2024-03-30T00:13:44,42.805,6.029,CST-1368DR,4140,4158,10646,01.532,553
2024-03-30T00:16:45,42.805,6.029,CST-1368DR,4140,4156,10642,01.534,553
2024-03-30T00:19:47,42.805,6.029,CST-1368DR,4140,4158,10645,01.533,553
2024-03-30T00:22:48,42.805,6.029,CST-1368DR,4140,4161,10654,01.529,553
2024-03-30T00:25:50,42.805,6.029,CST-1368DR,4140,4152,10630,01.538,553
2024-03-30T00:28:52,42.805,6.029,CST-1368DR,4140,4153,10634,01.537,553
2024-03-30T00:31:53,42.805,6.029,CST-1368DR,4140,4161,10655,01.529,553
2024-03-30T00:34:55,42.805,6.029,CST-1368DR,4140,4160,10651,01.531,553
2024-03-30T00:37:56,42.805,6.029,CST-1368DR,4140,4160,10652,01.530,553
2024-03-30T00:40:58,42.805,6.029,CST-1368DR,4139,4159,10652,01.530,553
2024-03-30T00:43:59,42.805,6.029,CST-1368DR,4140,4160,10651,01.531,553
2024-03-30T00:47:01,42.805,6.029,CST-1368DR,4139,4156,10645,01.533,553
2024-03-30T00:50:03,42.805,6.029,CST-1368DR,4139,4155,10642,01.534,553
2024-03-30T00:53:04,42.805,6.029,CST-1368DR,4139,4162,10658,01.528,553
2024-03-30T00:56:06,42.805,6.029,CST-1368DR,4139,4154,10638,01.535,553
2024-03-30T00:59:07,42.805,6.029,CST-1368DR,4139,4159,10650,01.531,553
2024-03-30T01:02:09,42.805,6.029,CST-1368DR,4139,4159,10652,01.530,553
2024-03-30T01:05:10,42.805,6.029,CST-1368DR,4139,4149,10625,01.540,553
2024-03-30T01:08:12,42.805,6.029,CST-1368DR,4139,4152,10634,01.537,553
2024-03-30T01:11:14,42.805,6.029,CST-1368DR,4139,4153,10636,01.536,553
2024-03-30T01:14:15,42.805,6.029,CST-1368DR,4139,4160,10653,01.530,553
2024-03-30T01:17:17,42.805,6.029,CST-1368DR,4139,4158,10648,01.532,553
2024-03-30T01:20:18,42.805,6.029,CST-1368DR,4139,4158,10649,01.531,553
2024-03-30T01:23:20,42.805,6.029,CST-1368DR,4139,4156,10643,01.534,553
2024-03-30T01:26:22,42.805,6.029,CST-1368DR,4139,4156,10643,01.534,553
2024-03-30T01:29:23,42.805,6.029,CST-1368DR,4139,4158,10649,01.531,553
2024-03-30T01:32:25,42.805,6.029,CST-1368DR,4139,4158,10649,01.531,553
2024-03-30T01:35:26,42.805,6.029,CST-1368DR,4139,4153,10636,01.536,553
2024-03-30T01:38:28,42.805,6.029,CST-1368DR,4139,4153,10636,01.536,553
2024-03-30T01:41:29,42.805,6.029,CST-1368DR,4139,4158,10650,01.531,553
2024-03-30T01:44:31,42.805,6.029,CST-1368DR,4139,4160,10654,01.529,553
2024-03-30T01:47:33,42.805,6.029,CST-1368DR,4139,4159,10652,01.530,553
2024-03-30T01:50:34,42.805,6.029,CST-1368DR,4139,4142,10607,01.547,553
2024-03-30T01:53:36,42.805,6.029,CST-1368DR,4139,4160,10654,01.529,553
2024-03-30T01:56:37,42.805,6.029,CST-1368DR,4139,4155,10642,01.534,553
2024-03-30T01:59:39,42.805,6.029,CST-1368DR,4138,4152,10636,01.536,553
2024-03-30T02:02:40,42.805,6.029,CST-1368DR,4139,4162,10659,01.528,553
2024-03-30T02:05:42,42.805,6.029,CST-1368DR,4138,4159,10653,01.530,553
2024-03-30T02:08:44,42.805,6.029,CST-1368DR,4138,4153,10639,01.535,553
2024-03-30T02:11:45,42.805,6.029,CST-1368DR,4138,4154,10641,01.534,553
2024-03-30T02:14:47,42.805,6.029,CST-1368DR,4138,4158,10652,01.530,553
2024-03-30T02:17:48,42.805,6.029,CST-1368DR,4138,4153,10638,01.535,553
2024-03-30T02:20:50,42.805,6.029,CST-1368DR,4138,4153,10639,01.535,553
2024-03-30T02:23:52,42.805,6.029,CST-1368DR,4138,4160,10655,01.529,553
2024-03-30T02:26:53,42.805,6.029,CST-1368DR,4138,4154,10641,01.534,553
2024-03-30T02:29:55,42.805,6.029,CST-1368DR,4138,4159,10654,01.529,553
2024-03-30T02:32:56,42.805,6.029,CST-1368DR,4138,4160,10656,01.529,553
2024-03-30T02:35:58,42.805,6.029,CST-1368DR,4138,4158,10652,01.530,553
2024-03-30T02:38:59,42.805,6.029,CST-1368DR,4138,4155,10643,01.534,553
2024-03-30T02:42:01,42.805,6.029,CST-1368DR,4138,4160,10657,01.528,553
2024-03-30T02:45:03,42.805,6.029,CST-1368DR,4138,4160,10657,01.528,553
2024-03-30T02:48:04,42.805,6.029,CST-1368DR,4138,4152,10635,01.537,553
2024-03-30T02:51:06,42.805,6.029,CST-1368DR,4138,4152,10636,01.536,553
2024-03-30T02:54:07,42.805,6.029,CST-1368DR,4138,4158,10652,01.530,553
2024-03-30T02:57:09,42.805,6.029,CST-1368DR,4138,4157,10649,01.531,553
2024-03-30T03:00:10,42.805,6.029,CST-1368DR,4138,4158,10652,01.530,553
2024-03-30T03:03:12,42.805,6.029,CST-1368DR,4138,4155,10643,01.534,553
2024-03-30T03:06:14,42.805,6.029,CST-1368DR,4138,4156,10646,01.532,553
2024-03-30T03:09:15,42.805,6.029,CST-1368DR,4138,4161,10659,01.528,553
2024-03-30T03:12:17,42.805,6.029,CST-1368DR,4138,4139,10604,01.548,553
2024-03-30T03:15:18,42.805,6.029,CST-1368DR,4138,4158,10652,01.530,553
2024-03-30T03:18:20,42.805,6.029,CST-1368DR,4138,4170,10682,01.519,553
2024-03-30T03:21:22,42.805,6.029,CST-1368DR,4138,4167,10675,01.522,553
2024-03-30T03:24:23,42.805,6.029,CST-1368DR,4138,4166,10672,01.523,553
2024-03-30T03:27:25,42.805,6.029,CST-1368DR,4138,4162,10663,01.526,553
2024-03-30T03:30:26,42.805,6.029,CST-1368DR,4138,4163,10664,01.526,553
2024-03-30T03:33:28,42.805,6.029,CST-1368DR,4138,4154,10641,01.534,553
2024-03-30T03:36:29,42.805,6.029,CST-1368DR,4137,4165,10672,01.523,553
2024-03-30T03:39:31,42.805,6.029,CST-1368DR,4137,4166,10674,01.522,553
2024-03-30T03:42:33,42.805,6.029,CST-1368DR,4137,4163,10666,01.525,553
2024-03-30T03:45:34,42.805,6.029,CST-1368DR,4137,4160,10658,01.528,553
2024-03-30T03:48:36,42.805,6.029,CST-1368DR,4137,4158,10655,01.529,553
2024-03-30T03:51:37,42.805,6.029,CST-1368DR,4137,4163,10668,01.524,553
2024-03-30T03:54:39,42.805,6.029,CST-1368DR,4137,4162,10663,01.526,553
2024-03-30T03:57:40,42.805,6.029,CST-1368DR,4137,4161,10662,01.526,553
2024-03-30T04:00:42,42.805,6.029,CST-1368DR,4137,4160,10660,01.527,553
2024-03-30T04:03:44,42.805,6.029,CST-1368DR,4137,4164,10670,01.523,553
2024-03-30T04:06:45,42.805,6.029,CST-1368DR,4137,4159,10655,01.529,553
2024-03-30T04:09:47,42.805,6.029,CST-1368DR,4137,4167,10676,01.521,553
2024-03-30T04:12:48,42.805,6.029,CST-1368DR,4137,4160,10658,01.528,553
2024-03-30T04:15:50,42.805,6.029,CST-1368DR,4137,4159,10657,01.528,553
2024-03-30T04:18:52,42.805,6.029,CST-1368DR,4137,4163,10666,01.525,553
2024-03-30T04:21:53,42.805,6.029,CST-1368DR,4137,4158,10653,01.530,553
2024-03-30T04:24:55,42.805,6.029,CST-1368DR,4137,4148,10628,01.539,553
2024-03-30T04:27:56,42.805,6.029,CST-1368DR,4137,4163,10667,01.525,553
2024-03-30T04:30:58,42.805,6.029,CST-1368DR,4137,4160,10658,01.528,553
2024-03-30T04:33:59,42.805,6.029,CST-1368DR,4137,4162,10663,01.526,553
2024-03-30T04:37:01,42.805,6.029,CST-1368DR,4137,4161,10662,01.526,553
2024-03-30T04:40:03,42.805,6.029,CST-1368DR,4137,4157,10650,01.531,553
2024-03-30T04:43:04,42.805,6.029,CST-1368DR,4137,4160,10659,01.528,553
2024-03-30T04:46:06,42.805,6.029,CST-1368DR,4137,4163,10667,01.525,553
2024-03-30T04:49:07,42.805,6.029,CST-1368DR,4137,4165,10671,01.523,553
2024-03-30T04:52:09,42.805,6.029,CST-1368DR,4137,4160,10659,01.528,553
2024-03-30T04:55:10,42.805,6.029,CST-1368DR,4137,4158,10655,01.529,553
2024-03-30T04:58:12,42.805,6.029,CST-1368DR,4137,4155,10647,01.532,553
2024-03-30T05:01:14,42.805,6.029,CST-1368DR,4136,4154,10645,01.533,553
2024-03-30T05:04:15,42.805,6.029,CST-1368DR,4137,4163,10666,01.525,553
2024-03-30T05:07:17,42.805,6.029,CST-1368DR,4136,4161,10663,01.526,553
2024-03-30T05:10:18,42.805,6.029,CST-1368DR,4136,4160,10660,01.527,553
2024-03-30T05:13:20,42.805,6.029,CST-1368DR,4136,4156,10652,01.530,553
2024-03-30T05:16:22,42.805,6.029,CST-1368DR,4136,4157,10654,01.529,553
2024-03-30T05:19:23,42.805,6.029,CST-1368DR,4136,4164,10671,01.523,553
2024-03-30T05:22:25,42.805,6.029,CST-1368DR,4136,4162,10667,01.525,553
2024-03-30T05:25:26,42.805,6.029,CST-1368DR,4136,4161,10665,01.525,553
2024-03-30T05:28:28,42.805,6.029,CST-1368DR,4136,4149,10634,01.537,553
2024-03-30T05:31:29,42.805,6.029,CST-1368DR,4136,4157,10653,01.530,553
2024-03-30T05:34:31,42.805,6.029,CST-1368DR,4136,4152,10640,01.535,553
2024-03-30T05:37:33,42.805,6.029,CST-1368DR,4136,4162,10666,01.525,553
2024-03-30T05:40:34,42.805,6.029,CST-1368DR,4136,4143,10617,01.543,553
2024-03-30T05:43:36,42.805,6.029,CST-1368DR,4136,4162,10666,01.525,553
2024-03-30T05:46:37,42.805,6.029,CST-1368DR,4136,4160,10662,01.526,553
2024-03-30T05:49:39,42.805,6.029,CST-1368DR,4136,4158,10655,01.529,553
2024-03-30T05:52:40,42.805,6.029,CST-1368DR,4136,4153,10644,01.533,553
2024-03-30T05:55:42,42.805,6.029,CST-1368DR,4136,4161,10665,01.525,553
2024-03-30T05:58:44,42.805,6.029,CST-1368DR,4136,4160,10662,01.526,553
2024-03-30T06:01:45,42.805,6.029,CST-1368DR,4136,4160,10662,01.526,553
2024-03-30T06:04:47,42.805,6.029,CST-1368DR,4136,4162,10667,01.525,553
2024-03-30T06:07:48,42.805,6.029,CST-1368DR,4136,4156,10650,01.531,553
2024-03-30T06:10:50,42.805,6.029,CST-1368DR,4136,4157,10653,01.530,553
2024-03-30T06:13:52,42.805,6.029,CST-1368DR,4136,4162,10666,01.525,553
2024-03-30T06:16:53,42.805,6.029,CST-1368DR,4136,4158,10655,01.529,553
2024-03-30T06:19:55,42.805,6.029,CST-1368DR,4136,4161,10663,01.526,553
2024-03-30T06:22:56,42.805,6.029,CST-1368DR,4136,4156,10651,01.531,553
2024-03-30T06:25:58,42.805,6.029,CST-1368DR,4136,4151,10639,01.535,553
2024-03-30T06:28:59,42.805,6.029,CST-1368DR,4136,4161,10664,01.526,553
2024-03-30T06:32:01,42.805,6.029,CST-1368DR,4135,4158,10658,01.528,553
2024-03-30T06:35:03,42.805,6.029,CST-1368DR,4135,4159,10660,01.527,553
2024-03-30T06:38:04,42.805,6.029,CST-1368DR,4136,4160,10661,01.527,553
2024-03-30T06:41:06,42.805,6.029,CST-1368DR,4135,4157,10656,01.529,553
2024-03-30T06:44:07,42.805,6.029,CST-1368DR,4135,4161,10665,01.525,553
2024-03-30T06:47:09,42.805,6.029,CST-1368DR,4135,4155,10650,01.531,553
2024-03-30T06:50:10,42.805,6.029,CST-1368DR,4135,4159,10662,01.526,553
2024-03-30T06:53:12,42.805,6.029,CST-1368DR,4135,4158,10658,01.528,553
2024-03-30T06:56:14,42.805,6.029,CST-1368DR,4135,4159,10661,01.527,553
2024-03-30T06:59:15,42.805,6.029,CST-1368DR,4135,4158,10659,01.528,553
2024-03-30T07:02:17,42.805,6.029,CST-1368DR,4135,4156,10653,01.530,553
2024-03-30T07:05:18,42.805,6.029,CST-1368DR,4135,4159,10660,01.527,553
2024-03-30T07:08:20,42.805,6.029,CST-1368DR,4135,4162,10670,01.523,553
2024-03-30T07:11:22,42.805,6.029,CST-1368DR,4135,4155,10652,01.530,553
2024-03-30T07:14:23,42.805,6.029,CST-1368DR,4135,4155,10651,01.531,553
2024-03-30T07:17:25,42.805,6.029,CST-1368DR,4135,4155,10651,01.531,553
2024-03-30T07:20:26,42.805,6.029,CST-1368DR,4135,4162,10669,01.524,553
2024-03-30T07:23:28,42.805,6.029,CST-1368DR,4135,4160,10664,01.526,553
2024-03-30T07:26:29,42.805,6.029,CST-1368DR,4135,4159,10662,01.526,553
2024-03-30T07:29:31,42.805,6.029,CST-1368DR,4135,4156,10653,01.530,553
2024-03-30T07:32:33,42.805,6.029,CST-1368DR,4135,4156,10653,01.530,553
2024-03-30T07:35:34,42.805,6.029,CST-1368DR,4135,4157,10656,01.529,553
2024-03-30T07:38:36,42.805,6.029,CST-1368DR,4135,4159,10661,01.527,553
2024-03-30T07:41:37,42.805,6.029,CST-1368DR,4135,4162,10669,01.524,553
2024-03-30T07:44:39,42.805,6.029,CST-1368DR,4135,4159,10661,01.527,553
2024-03-30T07:47:40,42.805,6.029,CST-1368DR,4135,4159,10662,01.526,553
2024-03-30T07:50:42,42.805,6.029,CST-1368DR,4135,4154,10648,01.532,553
2024-03-30T07:53:44,42.805,6.029,CST-1368DR,4135,4156,10653,01.530,553
2024-03-30T07:56:45,42.805,6.029,CST-1368DR,4135,4154,10648,01.532,553
2024-03-30T07:59:47,42.805,6.029,CST-1368DR,4135,4157,10656,01.529,553
2024-03-30T08:02:48,42.805,6.029,CST-1368DR,4135,4166,10680,01.520,553
2024-03-30T08:05:50,42.805,6.029,CST-1368DR,4134,4158,10662,01.526,553
2024-03-30T08:08:51,42.805,6.029,CST-1368DR,4134,4158,10661,01.527,553
2024-03-30T08:11:53,42.805,6.029,CST-1368DR,4134,4157,10659,01.528,553
2024-03-30T08:14:55,42.805,6.029,CST-1368DR,4134,4159,10664,01.526,553
2024-03-30T08:17:56,42.805,6.029,CST-1368DR,4134,4150,10642,01.534,553
2024-03-30T08:20:58,42.805,6.029,CST-1368DR,4134,4158,10662,01.526,553
2024-03-30T08:23:59,42.805,6.029,CST-1368DR,4134,4158,10662,01.526,553
2024-03-30T08:27:01,42.805,6.029,CST-1368DR,4134,4151,10644,01.533,553
2024-03-30T08:30:03,42.805,6.029,CST-1368DR,4134,4154,10650,01.531,553
2024-03-30T08:33:04,42.805,6.029,CST-1368DR,4134,4156,10655,01.529,553
2024-03-30T08:36:06,42.805,6.029,CST-1368DR,4134,4154,10652,01.530,553
2024-03-30T08:39:07,42.805,6.029,CST-1368DR,4134,4156,10656,01.529,553
2024-03-30T08:42:09,42.805,6.029,CST-1368DR,4134,4158,10662,01.526,553
2024-03-30T08:45:10,42.805,6.029,CST-1368DR,4134,4158,10662,01.526,553
2024-03-30T08:48:12,42.805,6.029,CST-1368DR,4134,4158,10660,01.527,553
2024-03-30T08:51:14,42.805,6.029,CST-1368DR,4134,4155,10653,01.530,553
2024-03-30T08:54:15,42.805,6.029,CST-1368DR,4134,4156,10656,01.529,553
2024-03-30T08:57:17,42.805,6.029,CST-1368DR,4134,4157,10658,01.528,553
2024-03-30T09:00:18,42.805,6.029,CST-1368DR,4134,4156,10655,01.529,553
2024-03-30T09:03:20,42.805,6.029,CST-1368DR,4134,4159,10663,01.526,553
2024-03-30T09:06:22,42.805,6.029,CST-1368DR,4134,4158,10662,01.526,553
2024-03-30T09:09:23,42.805,6.029,CST-1368DR,4134,4156,10656,01.529,553
2024-03-30T09:12:25,42.805,6.029,CST-1368DR,4134,4157,10658,01.528,553
2024-03-30T09:15:26,42.805,6.029,CST-1368DR,4134,4156,10656,01.529,553
2024-03-30T09:18:28,42.805,6.029,CST-1368DR,4134,4158,10662,01.526,553
2024-03-30T09:21:29,42.805,6.029,CST-1368DR,4134,4158,10662,01.526,553
2024-03-30T09:24:31,42.805,6.029,CST-1368DR,4134,4155,10654,01.529,553
2024-03-30T09:27:33,42.805,6.029,CST-1368DR,4134,4153,10648,01.532,553
2024-03-30T09:30:34,42.805,6.029,CST-1368DR,4134,4160,10666,01.525,553
2024-03-30T09:33:36,42.805,6.029,CST-1368DR,4134,4152,10647,01.532,553
2024-03-30T09:36:37,42.805,6.029,CST-1368DR,4134,4152,10646,01.532,553
2024-03-30T09:39:39,42.805,6.029,CST-1368DR,4134,4151,10644,01.533,553
2024-03-30T09:42:40,42.805,6.029,CST-1368DR,4134,4156,10656,01.529,553
2024-03-30T09:45:42,42.805,6.029,CST-1368DR,4134,4156,10656,01.529,553
2024-03-30T09:48:44,42.805,6.029,CST-1368DR,4134,4158,10660,01.527,553
2024-03-30T09:51:45,42.805,6.029,CST-1368DR,4134,4157,10658,01.528,553
2024-03-30T09:54:47,42.805,6.029,CST-1368DR,4134,4156,10657,01.528,553
2024-03-30T09:57:48,42.805,6.029,CST-1368DR,4133,4157,10661,01.527,553
2024-03-30T10:00:50,42.805,6.029,CST-1368DR,4133,4159,10666,01.525,553
2024-03-30T10:03:51,42.805,6.029,CST-1368DR,4133,4159,10665,01.525,553
2024-03-30T10:06:53,42.805,6.029,CST-1368DR,4133,4160,10668,01.524,553
2024-03-30T10:09:55,42.805,6.029,CST-1368DR,4133,4163,10676,01.521,553
2024-03-30T10:12:56,42.805,6.029,CST-1368DR,4133,4157,10660,01.527,553
2024-03-30T10:15:58,42.805,6.029,CST-1368DR,4133,4155,10656,01.529,553
2024-03-30T10:18:59,42.805,6.029,CST-1368DR,4133,4155,10655,01.529,553
2024-03-30T10:22:01,42.805,6.029,CST-1368DR,4133,4150,10643,01.534,553
2024-03-30T10:25:03,42.805,6.029,CST-1368DR,4133,4148,10639,01.535,553
2024-03-30T10:28:04,42.805,6.029,CST-1368DR,4133,4151,10646,01.532,553
2024-03-30T10:31:06,42.805,6.029,CST-1368DR,4133,4149,10640,01.535,553
2024-03-30T10:34:07,42.805,6.029,CST-1368DR,4133,4148,10638,01.535,553
2024-03-30T10:37:09,42.805,6.029,CST-1368DR,4133,4150,10644,01.533,553
2024-03-30T10:40:10,42.805,6.029,CST-1368DR,4133,4152,10649,01.531,553
2024-03-30T10:43:12,42.805,6.029,CST-1368DR,4133,4152,10649,01.531,553
2024-03-30T10:46:14,42.805,6.029,CST-1368DR,4133,4151,10647,01.532,553
2024-03-30T10:49:15,42.805,6.029,CST-1368DR,4133,4145,10631,01.538,553
2024-03-30T10:52:17,42.805,6.029,CST-1368DR,4133,4148,10638,01.535,553
2024-03-30T10:55:18,42.805,6.029,CST-1368DR,4133,4145,10631,01.538,553
2024-03-30T10:58:20,42.805,6.029,CST-1368DR,4133,4150,10642,01.534,553
2024-03-30T11:01:22,42.805,6.029,CST-1368DR,4133,4152,10649,01.531,553
2024-03-30T11:04:23,42.805,6.029,CST-1368DR,4133,4140,10617,01.543,553
2024-03-30T11:07:25,42.805,6.029,CST-1368DR,4133,4150,10643,01.534,553
2024-03-30T11:10:26,42.805,6.029,CST-1368DR,4133,4151,10647,01.532,553
2024-03-30T11:13:28,42.805,6.029,CST-1368DR,4133,4152,10647,01.532,553
2024-03-30T11:16:29,42.805,6.029,CST-1368DR,4133,4148,10637,01.536,553
2024-03-30T11:19:31,42.805,6.029,CST-1368DR,4133,4152,10649,01.531,553
2024-03-30T11:22:33,42.805,6.029,CST-1368DR,4133,4149,10640,01.535,553
2024-03-30T11:25:34,42.805,6.029,CST-1368DR,4133,4149,10641,01.534,553
2024-03-30T11:28:36,42.805,6.029,CST-1368DR,4133,4151,10646,01.532,553
2024-03-30T11:31:37,42.805,6.029,CST-1368DR,4133,4159,10667,01.525,553
2024-03-30T11:34:39,42.805,6.029,CST-1368DR,4133,4152,10648,01.532,553
2024-03-30T11:37:40,42.805,6.029,CST-1368DR,4132,4150,10647,01.532,553
2024-03-30T11:40:42,42.805,6.029,CST-1368DR,4132,4152,10651,01.531,553
2024-03-30T11:43:44,42.805,6.029,CST-1368DR,4132,4152,10652,01.530,553
2024-03-30T11:46:45,42.805,6.029,CST-1368DR,4132,4152,10652,01.530,553
2024-03-30T11:49:47,42.805,6.029,CST-1368DR,4132,4154,10657,01.528,553
2024-03-30T11:52:48,42.805,6.029,CST-1368DR,4132,4155,10659,01.528,553
2024-03-30T11:55:50,42.805,6.029,CST-1368DR,4132,4152,10651,01.531,553
2024-03-30T11:58:51,42.805,6.029,CST-1368DR,4132,4153,10654,01.529,553
2024-03-30T12:01:53,42.805,6.029,CST-1368DR,4132,4155,10659,01.528,553
2024-03-30T12:04:55,42.805,6.029,CST-1368DR,4132,4151,10649,01.531,553
2024-03-30T12:07:56,42.805,6.029,CST-1368DR,4132,4154,10657,01.528,553
2024-03-30T12:10:58,42.805,6.029,CST-1368DR,4132,4153,10654,01.529,553
2024-03-30T12:13:59,42.805,6.029,CST-1368DR,4132,4152,10650,01.531,553
2024-03-30T12:17:01,42.805,6.029,CST-1368DR,4132,4154,10655,01.529,553
2024-03-30T12:20:03,42.805,6.029,CST-1368DR,4132,4154,10655,01.529,553
2024-03-30T12:23:04,42.805,6.029,CST-1368DR,4132,4152,10650,01.531,553
2024-03-30T12:26:06,42.805,6.029,CST-1368DR,4132,4152,10650,01.531,553
2024-03-30T12:29:07,42.805,6.029,CST-1368DR,4132,4155,10658,01.528,553
2024-03-30T12:32:09,42.805,6.029,CST-1368DR,4132,4150,10646,01.532,553
2024-03-30T12:35:10,42.805,6.029,CST-1368DR,4132,4153,10654,01.529,553
2024-03-30T12:38:12,42.805,6.029,CST-1368DR,4132,4153,10652,01.530,553
2024-03-30T12:41:14,42.805,6.029,CST-1368DR,4132,4152,10650,01.531,553
2024-03-30T12:44:15,42.805,6.029,CST-1368DR,4132,4151,10649,01.531,553
2024-03-30T12:47:17,42.805,6.029,CST-1368DR,4131,4150,10648,01.532,553
2024-03-30T12:50:18,42.805,6.029,CST-1368DR,4132,4151,10649,01.531,553
2024-03-30T12:53:20,42.805,6.029,CST-1368DR,4132,4147,10638,01.535,553
2024-03-30T12:56:21,42.805,6.029,CST-1368DR,4131,4152,10654,01.529,553
2024-03-30T12:59:23,42.805,6.029,CST-1368DR,4132,4154,10655,01.529,553
2024-03-30T13:02:25,42.805,6.029,CST-1368DR,4131,4148,10644,01.533,553
2024-03-30T13:05:26,42.805,6.029,CST-1368DR,4131,4153,10656,01.529,553
2024-03-30T13:08:28,42.805,6.029,CST-1368DR,4131,4151,10650,01.531,553
2024-03-30T13:11:29,42.805,6.029,CST-1368DR,4131,4152,10654,01.529,553
2024-03-30T13:14:31,42.805,6.029,CST-1368DR,4131,4152,10654,01.529,553
2024-03-30T13:17:33,42.805,6.029,CST-1368DR,4131,4150,10647,01.532,553
2024-03-30T13:20:34,42.805,6.029,CST-1368DR,4131,4151,10652,01.530,553
2024-03-30T13:23:36,42.805,6.029,CST-1368DR,4131,4150,10648,01.532,553
2024-03-30T13:26:37,42.805,6.029,CST-1368DR,4131,4147,10640,01.535,553
2024-03-30T13:29:39,42.805,6.029,CST-1368DR,4131,4149,10645,01.533,553
2024-03-30T13:32:40,42.805,6.029,CST-1368DR,4131,4152,10653,01.530,553
2024-03-30T13:35:42,42.805,6.029,CST-1368DR,4131,4151,10651,01.531,553
2024-03-30T13:38:44,42.805,6.029,CST-1368DR,4131,4145,10636,01.536,553
2024-03-30T13:41:45,42.805,6.029,CST-1368DR,4131,4154,10659,01.528,553
2024-03-30T13:44:47,42.805,6.029,CST-1368DR,4131,4150,10649,01.531,553
2024-03-30T13:47:48,42.805,6.029,CST-1368DR,4131,4150,10648,01.532,553
2024-03-30T13:50:50,42.805,6.029,CST-1368DR,4131,4152,10653,01.530,553
2024-03-30T13:53:52,42.805,6.029,CST-1368DR,4131,4148,10642,01.534,553
2024-03-30T13:56:53,42.805,6.029,CST-1368DR,4131,4150,10649,01.531,553
2024-03-30T13:59:55,42.805,6.029,CST-1368DR,4131,4148,10643,01.534,553
2024-03-30T14:02:56,42.805,6.029,CST-1368DR,4131,4149,10645,01.533,553
2024-03-30T14:05:58,42.805,6.029,CST-1368DR,4131,4152,10654,01.529,553
2024-03-30T14:08:59,42.805,6.029,CST-1368DR,4131,4149,10645,01.533,553
2024-03-30T14:12:01,42.805,6.029,CST-1368DR,4131,4144,10633,01.537,553
2024-03-30T14:15:03,42.805,6.029,CST-1368DR,4131,4144,10633,01.537,553
2024-03-30T14:18:04,42.805,6.029,CST-1368DR,4131,4143,10631,01.538,553
2024-03-30T14:21:06,42.805,6.029,CST-1368DR,4131,4143,10630,01.538,553
2024-03-30T14:24:07,42.805,6.029,CST-1368DR,4130,4148,10646,01.532,553
2024-03-30T14:27:09,42.805,6.029,CST-1368DR,4130,4147,10643,01.534,553
2024-03-30T14:30:10,42.805,6.029,CST-1368DR,4131,4149,10645,01.533,553
2024-03-30T14:33:12,42.805,6.029,CST-1368DR,4131,4147,10641,01.534,553
2024-03-30T14:36:14,42.805,6.029,CST-1368DR,4131,4145,10636,01.536,553
2024-03-30T14:39:15,42.805,6.029,CST-1368DR,4130,4145,10637,01.536,553
2024-03-30T14:42:17,42.805,6.029,CST-1368DR,4130,4152,10656,01.529,553
2024-03-30T14:45:18,42.805,6.029,CST-1368DR,4131,4149,10647,01.532,553
2024-03-30T14:48:20,42.805,6.029,CST-1368DR,4130,4148,10645,01.533,553
2024-03-30T14:51:22,42.805,6.029,CST-1368DR,4130,4146,10641,01.534,553
2024-03-30T14:54:23,42.805,6.029,CST-1368DR,4130,4148,10644,01.533,553
2024-03-30T14:57:25,42.805,6.029,CST-1368DR,4130,4148,10644,01.533,553
2024-03-30T15:00:26,42.805,6.029,CST-1368DR,4130,4149,10649,01.531,553
2024-03-30T15:03:28,42.805,6.029,CST-1368DR,4130,4148,10645,01.533,553
2024-03-30T15:06:29,42.805,6.029,CST-1368DR,4130,4155,10663,01.526,553
2024-03-30T15:09:31,42.805,6.029,CST-1368DR,4130,4151,10653,01.530,553
2024-03-30T15:12:33,42.805,6.029,CST-1368DR,4130,4152,10657,01.528,553
2024-03-30T15:15:34,42.805,6.029,CST-1368DR,4130,4148,10645,01.533,553
2024-03-30T15:18:36,42.805,6.029,CST-1368DR,4130,4150,10650,01.531,553
2024-03-30T15:21:37,42.805,6.029,CST-1368DR,4130,4149,10649,01.531,553
2024-03-30T15:24:39,42.805,6.029,CST-1368DR,4130,4147,10642,01.534,553
2024-03-30T15:27:41,42.805,6.029,CST-1368DR,4130,4149,10648,01.532,553
2024-03-30T15:30:42,42.805,6.029,CST-1368DR,4130,4153,10657,01.528,553
2024-03-30T15:33:44,42.805,6.029,CST-1368DR,4130,4151,10653,01.530,553
2024-03-30T15:36:45,42.805,6.029,CST-1368DR,4130,4151,10654,01.529,553
2024-03-30T15:39:47,42.805,6.029,CST-1368DR,4130,4149,10648,01.532,553
2024-03-30T15:42:48,42.805,6.029,CST-1368DR,4130,4149,10647,01.532,553
2024-03-30T15:45:50,42.805,6.029,CST-1368DR,4130,4147,10643,01.534,553
2024-03-30T15:48:52,42.805,6.029,CST-1368DR,4130,4149,10649,01.531,553
2024-03-30T15:51:53,42.805,6.029,CST-1368DR,4130,4152,10655,01.529,553
2024-03-30T15:54:55,42.805,6.029,CST-1368DR,4130,4150,10650,01.531,553
2024-03-30T15:57:56,42.805,6.029,CST-1368DR,4130,4150,10651,01.531,553
2024-03-30T16:00:58,42.805,6.029,CST-1368DR,4130,4149,10649,01.531,553
2024-03-30T16:03:59,42.805,6.029,CST-1368DR,4130,4148,10646,01.532,553
2024-03-30T16:07:01,42.805,6.029,CST-1368DR,4130,4148,10646,01.532,553
2024-03-30T16:10:03,42.805,6.029,CST-1368DR,4130,4145,10638,01.535,553
2024-03-30T16:13:04,42.805,6.029,CST-1368DR,4130,4148,10644,01.533,553
2024-03-30T16:16:06,42.805,6.029,CST-1368DR,4130,4145,10637,01.536,553
2024-03-30T16:19:07,42.805,6.029,CST-1368DR,4130,4151,10653,01.530,553
2024-03-30T16:22:09,42.805,6.029,CST-1368DR,4130,4147,10643,01.534,553
2024-03-30T16:25:10,42.805,6.029,CST-1368DR,4130,4147,10643,01.534,553
2024-03-30T16:28:12,42.805,6.029,CST-1368DR,4130,4152,10657,01.528,553
2024-03-30T16:31:14,42.805,6.029,CST-1368DR,4129,4149,10651,01.531,553
2024-03-30T16:34:15,42.805,6.029,CST-1368DR,4129,4147,10645,01.533,553
2024-03-30T16:37:17,42.805,6.029,CST-1368DR,4129,4150,10652,01.530,553